When you browse on this site, cookies collect data to enhance your experience and personalize the content and advertising you see.
Visit our Privacy Policy to learn more. By continuing to use the site, you agree to this use of cookies and data.
  • în România
  • Lista ţărilor
  • Pe 7 zile
  • Temperatura apei
  • Meteo pe hartă
  • Widget-uri
  • user-avatar
    Intrare

    Meteo pe oră la Molepolole

    Astăzi, 23 Februarie, Duminică

    Timp Temperatura Precipitaţii Vânt Presiune Umiditate
    00:00 +24°C° 0.2 mm 1 m/s 663 mmHg 72%
    01:00 +24°C° 0.2 mm 1 m/s 663 mmHg 73%
    02:00 +24°C° 0.2 mm 1 m/s 662 mmHg 74%
    03:00 +23°C° 0.2 mm 1 m/s 662 mmHg 74%
    04:00 +23°C° 0.2 mm 2 m/s 662 mmHg 74%
    05:00 +23°C° 0.2 mm 2 m/s 662 mmHg 74%
    06:00 +23°C° 0.1 mm 2 m/s 662 mmHg 72%
    07:00 +24°C° 0.1 mm 2 m/s 663 mmHg 69%
    08:00 +24°C° 0.1 mm 2 m/s 664 mmHg 67%
    09:00 +26°C° 0.1 mm 3 m/s 664 mmHg 62%
    10:00 +27°C° 0.1 mm 3 m/s 664 mmHg 57%
    11:00 +29°C° 0.1 mm 4 m/s 664 mmHg 52%
    12:00 +30°C° 0 mm 3 m/s 664 mmHg 47%
    13:00 +31°C° 0 mm 3 m/s 664 mmHg 43%
    14:00 +34°C° 0 mm 3 m/s 663 mmHg 38%
    15:00 +33°C° 0.1 mm 4 m/s 663 mmHg 39%
    16:00 +33°C° 0.1 mm 4 m/s 663 mmHg 40%
    17:00 +33°C° 0.1 mm 5 m/s 662 mmHg 42%
    18:00 +29°C° 7 mm 5 m/s 662 mmHg 56%
    19:00 +26°C° 7 mm 5 m/s 663 mmHg 71%
    20:00 +22°C° 7 mm 5 m/s 663 mmHg 85%
    21:00 +21°C° 3.7 mm 5 m/s 663 mmHg 87%
    22:00 +21°C° 3.7 mm 6 m/s 664 mmHg 90%
    23:00 +20°C° 3.7 mm 7 m/s 664 mmHg 92%

    Mâine, 24 Februarie, Luni

    Timp Temperatura Precipitaţii Vânt Presiune Umiditate
    00:00 +20°C° 1.3 mm 7 m/s 664 mmHg 91%
    01:00 +18°C° 1.3 mm 7 m/s 664 mmHg 91%
    02:00 +18°C° 1.3 mm 8 m/s 664 mmHg 90%
    03:00 +18°C° 0 mm 7 m/s 664 mmHg 90%
    04:00 +19°C° 0 mm 6 m/s 664 mmHg 90%
    05:00 +19°C° 0 mm 6 m/s 664 mmHg 89%
    06:00 +19°C° 0.1 mm 6 m/s 664 mmHg 89%
    07:00 +19°C° 0.1 mm 6 m/s 665 mmHg 88%
    08:00 +17°C° 0.1 mm 6 m/s 665 mmHg 88%
    09:00 +17°C° 0 mm 6 m/s 666 mmHg 86%
    10:00 +19°C° 0 mm 6 m/s 666 mmHg 84%
    11:00 +19°C° 0 mm 6 m/s 666 mmHg 82%
    12:00 +20°C° 0 mm 6 m/s 666 mmHg 77%
    13:00 +20°C° 0 mm 5 m/s 666 mmHg 72%
    14:00 +21°C° 0 mm 5 m/s 666 mmHg 67%
    15:00 +22°C° 0 mm 5 m/s 666 mmHg 64%
    16:00 +23°C° 0 mm 5 m/s 666 mmHg 61%
    17:00 +23°C° 0 mm 5 m/s 665 mmHg 57%
    18:00 +22°C° 0 mm 4 m/s 665 mmHg 61%
    19:00 +21°C° 0 mm 3 m/s 665 mmHg 65%
    20:00 +20°C° 0 mm 3 m/s 665 mmHg 69%
    21:00 +19°C° 0 mm 2 m/s 665 mmHg 71%
    22:00 +19°C° 0 mm 2 m/s 666 mmHg 73%
    23:00 +18°C° 0 mm 2 m/s 666 mmHg 76%

    Poimâine, 25 Februarie, Marţi

    Timp Temperatura Precipitaţii Vânt Presiune Umiditate
    00:00 +18°C° 0 mm 2 m/s 665 mmHg 76%
    01:00 +17°C° 0 mm 2 m/s 665 mmHg 77%
    02:00 +17°C° 0 mm 2 m/s 665 mmHg 78%
    03:00 +17°C° 0 mm 2 m/s 664 mmHg 79%
    04:00 +16°C° 0 mm 3 m/s 664 mmHg 81%
    05:00 +16°C° 0 mm 3 m/s 664 mmHg 82%
    06:00 +17°C° 0 mm 4 m/s 665 mmHg 80%
    07:00 +17°C° 0 mm 4 m/s 665 mmHg 78%
    08:00 +17°C° 0 mm 5 m/s 666 mmHg 75%
    09:00 +20°C° 0 mm 5 m/s 666 mmHg 70%
    10:00 +21°C° 0 mm 5 m/s 666 mmHg 64%
    11:00 +23°C° 0 mm 5 m/s 667 mmHg 58%
    12:00 +25°C° 0 mm 5 m/s 666 mmHg 53%
    13:00 +27°C° 0 mm 5 m/s 666 mmHg 48%
    14:00 +28°C° 0 mm 5 m/s 665 mmHg 42%
    15:00 +28°C° 0 mm 5 m/s 665 mmHg 42%
    16:00 +27°C° 0 mm 5 m/s 664 mmHg 41%
    17:00 +27°C° 0 mm 4 m/s 664 mmHg 40%
    18:00 +26°C° 0 mm 4 m/s 664 mmHg 46%
    19:00 +23°C° 0 mm 4 m/s 664 mmHg 52%
    20:00 +21°C° 0 mm 3 m/s 664 mmHg 58%
    21:00 +21°C° 0 mm 3 m/s 664 mmHg 60%
    22:00 +20°C° 0 mm 3 m/s 664 mmHg 61%
    23:00 +20°C° 0 mm 3 m/s 664 mmHg 63%

    26 Februarie, Miercuri

    Timp Temperatura Precipitaţii Vânt Presiune Umiditate
    00:00 +19°C° 0 mm 3 m/s 664 mmHg 65%
    01:00 +19°C° 0 mm 3 m/s 664 mmHg 68%
    02:00 +19°C° 0 mm 3 m/s 664 mmHg 70%
    03:00 +18°C° 0 mm 2 m/s 664 mmHg 72%
    04:00 +18°C° 0 mm 2 m/s 664 mmHg 73%
    05:00 +17°C° 0 mm 2 m/s 664 mmHg 74%
    06:00 +18°C° 0 mm 3 m/s 664 mmHg 70%
    07:00 +19°C° 0 mm 3 m/s 665 mmHg 67%
    08:00 +19°C° 0 mm 4 m/s 665 mmHg 63%
    09:00 +21°C° 0 mm 4 m/s 665 mmHg 56%
    10:00 +24°C° 0 mm 3 m/s 666 mmHg 49%
    11:00 +26°C° 0 mm 3 m/s 666 mmHg 42%
    12:00 +27°C° 0 mm 4 m/s 666 mmHg 40%
    13:00 +29°C° 0 mm 4 m/s 665 mmHg 37%
    14:00 +30°C° 0 mm 4 m/s 665 mmHg 34%
    15:00 +30°C° 0 mm 4 m/s 664 mmHg 34%
    16:00 +30°C° 0 mm 4 m/s 664 mmHg 33%
    17:00 +30°C° 0 mm 4 m/s 663 mmHg 33%
    18:00 +28°C° 0 mm 3 m/s 663 mmHg 36%
    19:00 +27°C° 0 mm 2 m/s 663 mmHg 39%
    20:00 +25°C° 0 mm 2 m/s 663 mmHg 42%
    21:00 +24°C° 0 mm 2 m/s 663 mmHg 43%
    22:00 +24°C° 0 mm 2 m/s 663 mmHg 44%
    23:00 +23°C° 0 mm 1 m/s 663 mmHg 45%

    27 Februarie, Joi

    Timp Temperatura Precipitaţii Vânt Presiune Umiditate
    00:00 +23°C° 0 mm 2 m/s 663 mmHg 48%
    01:00 +23°C° 0 mm 2 m/s 663 mmHg 50%
    02:00 +23°C° 0 mm 2 m/s 663 mmHg 52%
    03:00 +23°C° 0 mm 2 m/s 663 mmHg 52%
    04:00 +22°C° 0 mm 3 m/s 663 mmHg 51%
    05:00 +22°C° 0 mm 3 m/s 663 mmHg 50%
    06:00 +24°C° 0 mm 3 m/s 663 mmHg 50%
    07:00 +24°C° 0 mm 2 m/s 664 mmHg 50%
    08:00 +24°C° 0 mm 2 m/s 665 mmHg 50%
    09:00 +26°C° 0 mm 2 m/s 665 mmHg 45%
    10:00 +28°C° 0 mm 3 m/s 665 mmHg 40%
    11:00 +29°C° 0 mm 3 m/s 665 mmHg 35%
    12:00 +30°C° 0 mm 3 m/s 665 mmHg 32%
    13:00 +33°C° 0 mm 3 m/s 665 mmHg 29%
    14:00 +34°C° 0 mm 3 m/s 665 mmHg 26%
    15:00 +34°C° 0 mm 3 m/s 664 mmHg 26%
    16:00 +34°C° 0 mm 3 m/s 664 mmHg 27%
    17:00 +34°C° 0 mm 3 m/s 663 mmHg 28%
    18:00 +31°C° 0 mm 3 m/s 663 mmHg 33%
    19:00 +29°C° 0 mm 3 m/s 663 mmHg 38%
    20:00 +27°C° 0 mm 3 m/s 663 mmHg 43%
    21:00 +26°C° 0 mm 2 m/s 663 mmHg 45%
    22:00 +26°C° 0 mm 1 m/s 663 mmHg 46%
    23:00 +25°C° 0 mm 1 m/s 663 mmHg 47%

    28 Februarie, Vineri

    Timp Temperatura Precipitaţii Vânt Presiune Umiditate
    00:00 +25°C° 0 mm 1 m/s 663 mmHg 47%
    01:00 +25°C° 0 mm 1 m/s 663 mmHg 48%
    02:00 +25°C° 0 mm 2 m/s 663 mmHg 48%
    03:00 +24°C° 0 mm 2 m/s 663 mmHg 52%
    04:00 +24°C° 0 mm 2 m/s 663 mmHg 56%
    05:00 +23°C° 0 mm 2 m/s 663 mmHg 60%
    06:00 +24°C° 0 mm 2 m/s 664 mmHg 57%
    07:00 +25°C° 0 mm 2 m/s 664 mmHg 54%
    08:00 +26°C° 0 mm 2 m/s 665 mmHg 51%
    09:00 +27°C° 0 mm 3 m/s 665 mmHg 45%
    10:00 +29°C° 0 mm 3 m/s 666 mmHg 39%
    11:00 +31°C° 0 mm 3 m/s 666 mmHg 33%
    12:00 +33°C° 0 mm 3 m/s 666 mmHg 31%
    13:00 +34°C° 0 mm 4 m/s 665 mmHg 29%
    14:00 +35°C° 0 mm 4 m/s 665 mmHg 26%
    15:00 +35°C° 0 mm 4 m/s 665 mmHg 27%
    16:00 +35°C° 0 mm 4 m/s 664 mmHg 27%
    17:00 +35°C° 0 mm 4 m/s 664 mmHg 27%
    18:00 +33°C° 0 mm 4 m/s 664 mmHg 32%
    19:00 +30°C° 0 mm 4 m/s 665 mmHg 36%
    20:00 +28°C° 0 mm 5 m/s 665 mmHg 41%
    21:00 +26°C° 0 mm 6 m/s 666 mmHg 53%
    22:00 +24°C° 0 mm 7 m/s 666 mmHg 65%
    23:00 +22°C° 0 mm 9 m/s 667 mmHg 77%
    Arată mai mult